FREGAT DEB, 45640

Orbit data source: Space-Track

FREGAT DEB, 45640 is space debris in LEO originally from a launch on Mon, 18 Jul 2011 UTC launched from the Tyuratam Missile And Space Complex (TTMTR). Debris objects in space refer to the collection of defunct objects orbiting the Earth. Examples of debris include non-operational satellites, rocket bodies, and fragments generated from explosions, collisions, or faulty payload assembly.

Loading next visibility...
Identifier
45640, 2011-037AG
Orbit
LEO
Last TLE update
7 months ago
Origin
Manufacturer
Lavochkin
Mission
Spacecraft
Bus & Motor
Unknown
Mass
Unknown
Launch date (UTC)
2011-07-18 (14 years ago)
Launch vehicle
Unknown
Launch site
Tyuratam Missile And Space Complex (TTMTR)
Object type
Payload
Rocket body
Debris
Shape & HBR
Unknown
Radar Cross Section
Small (<0.1 m²)

Expand to show TLE details & history

TLE from 7 months ago
0 FREGAT DEB
1 45640U 11037AG  24330.85900094 -.00000134  00000-0  00000-0 0  9997
2 45640  50.8815 206.6247 0994687  76.5920 294.3727 12.71158316 58245
Epoch: 2024-11-25T20:36Z
TLE epoch observation values (Epoch: 2024-11-25T20:36:57.681Z)
Latitude
0.00006°
Longitude
-167.89288°
Altitude
1,126.858 km
Speed
7.407 km/s
True Right ascension
13h 46m 29s
True Declination
0° 00' 00"
Sunlit
Object was in daylight at epoch
Visualization orbit readout
Latitude
45.3792°
Longitude
-96.77721°
Altitude
2,085.992 km
Speed
6.549 km/s
Apparent Right ascension
14h 57m 54s
Apparent Declination
22° 26' 47"
Sunlit
Object is in daylight
Visualization observer readout
Local Sidereal Time
21:50:27
Azimuth
295.413° NW
Elevation
4.813°
Doppler factor
1
Orbital elements
Apogee altitude
2,149.262 km
Perigee altitude
606.318 km
Semi-major axis
7,755.927 km
Eccentricity
0.09947
Inclination
50.8815°
RAAN
206.6247°
Arg. of periapsis
76.592°
True anomaly
Unknown
Mean anomaly
294.3727°
Eccentric anomaly
Unknown
Mean motion
3.17755 °/min
Orbital period
113.29 mins
BSTAR
0
Loading maneuver chart data...
Loading SW <> Apogee altitude chart data...
Loading historical data...
Loading historical data...
Loading historical data...
Loading historical data...
Loading historical data...
Loading historical data...
Loading historical data...

FREGAT DEB Visibility forecast

Observer location: undefined°, undefined°

Span
Click to sort rows by Start time (UTC) header in descending order
Start Az.
Max El. time (UTC)
Max El. Az.
Max El.
End time (UTC)
End Az.
23 mins2025-07-01 10:14:02.894Z298.24° NW2025-07-01 10:27:02.894Z22.377° NNE39.537°2025-07-01 10:37:02.894Z89.715° E
21 mins2025-07-01 12:16:02.894Z304.846° NW2025-07-01 12:28:02.894Z168.403° S44.839°2025-07-01 12:37:02.894Z131.738° SE
15 mins2025-07-01 14:18:02.894Z289.285° WNW2025-07-01 14:26:02.894Z239.662° WSW27.159°2025-07-01 14:33:02.894Z188.052° SSW
10 mins2025-07-02 02:56:02.894Z139.641° SSE2025-07-02 03:00:02.894Z113.503° SE17.001°2025-07-02 03:06:02.894Z80.3° E
20 mins2025-07-02 04:49:02.894Z208.828° SW2025-07-02 04:57:02.894Z144.074° SSE41.823°2025-07-02 05:09:02.894Z57.317° ENE
22 mins2025-07-02 06:48:02.894Z257.397° W2025-07-02 06:58:02.894Z344.078° N42.129°2025-07-02 07:10:02.894Z56.997° ENE
22 mins2025-07-02 08:49:02.894Z289.683° WNW2025-07-02 09:00:02.894Z3.649° NNE37.729°2025-07-02 09:11:02.894Z72.928° E
|